Coolangatta Observation History
Time Wind Speed Temp Pressure Rel. Hum Rain
04/04:30am SW 9-13 kts 14.0°c 1025.1 hPa 54% 0.0mm
04/04:00am SW 7-11 kts 13.6°c 1025.1 hPa 55% 0.0mm
04/03:30am SW 8-11 kts 13.3°c 1025.1 hPa 56% 0.0mm
04/03:00am SW 7-10 kts 13.8°c 1025.1 hPa 54% 0.0mm
04/02:30am SSW 9-13 kts 14.5°c 1025.3 hPa 56% 0.0mm
04/02:00am SSW 7-10 kts 14.2°c 1025.4 hPa 61% 0.0mm
04/01:30am SW 7-11 kts 14.7°c 1025.2 hPa 61% 0.0mm
04/01:00am SW 7-10 kts 14.8°c 1025.3 hPa 61% 0.0mm
04/12:30am SW 7-11 kts 15.0°c 1025.4 hPa 60% 0.0mm
04/12:00am SW 8-11 kts 15.0°c 1025.3 hPa 60% 0.0mm
Time Wind Speed Temp Pressure Rel. Hum Rain
03/11:30pm SW 7-12 kts 15.3°c 1025.2 hPa 60% 0.0mm
03/11:00pm SW 7-10 kts 14.3°c 1025.2 hPa 67% 0.0mm
03/10:30pm SW 5-8 kts 13.7°c 1025.3 hPa 70% 0.0mm
03/10:00pm WSW 5-7 kts 13.3°c 1025.3 hPa 74% 0.0mm
03/09:30pm WSW 5-7 kts 13.3°c 1025.2 hPa 72% 0.0mm
03/09:00pm WSW 4-5 kts 14.3°c 1025.0 hPa 68% 0.0mm
03/08:30pm WSW 4-5 kts 14.2°c 1025.0 hPa 69% 0.0mm
03/08:00pm WSW 4-6 kts 14.4°c 1024.7 hPa 69% 0.0mm
03/07:30pm WSW 5-8 kts 14.0°c 1024.4 hPa 66% 0.0mm
03/07:00pm SW 7-10 kts 14.7°c 1024.0 hPa 61% 0.0mm
03/06:30pm SSW 5-9 kts 15.2°c 1023.5 hPa 57% 0.0mm
03/06:00pm S 6-10 kts 15.3°c 1022.7 hPa 55% 0.0mm
03/05:30pm S 7-11 kts 16.0°c 1022.2 hPa 53% 0.0mm
03/05:00pm SSE 8-13 kts 16.6°c 1021.6 hPa 55% 0.0mm
03/04:30pm SE 9-13 kts 17.7°c 1021.1 hPa 51% 0.0mm
03/04:00pm SE 8-13 kts 18.8°c 1020.7 hPa 46% 0.0mm
03/03:30pm ESE 7-10 kts 19.3°c 1020.2 hPa 43% 0.0mm
03/03:00pm ESE 7-10 kts 19.2°c 1019.9 hPa 41% 0.0mm
03/02:30pm ESE 7-10 kts 19.5°c 1019.9 hPa 41% 0.0mm
03/02:00pm NE 9-11 kts 19.7°c 1019.7 hPa 39% 0.0mm
03/01:30pm E 7-11 kts 20.0°c 1019.6 hPa 36% 0.0mm
03/01:00pm E 7-11 kts 19.5°c 1019.7 hPa 34% 0.0mm
03/12:30pm E 8-10 kts 19.6°c 1020.0 hPa 33% 0.0mm
03/12:00pm ENE 7-9 kts 19.5°c 1020.4 hPa 35% 0.0mm
03/11:30am SSE 4-7 kts 19.4°c 1020.9 hPa 29% 0.0mm
03/11:00am SSE 5-8 kts 19.6°c 1021.2 hPa 29% 0.0mm
03/10:30am SSW 1-5 kts 19.3°c 1021.3 hPa 30% 0.0mm
03/10:00am SW 2-4 kts 18.3°c 1021.5 hPa 32% 0.0mm
03/09:30am NW 4-7 kts 17.6°c 1021.3 hPa 34% 0.0mm
03/09:00am W 1-6 kts 16.2°c 1021.2 hPa 47% 0.0mm
03/08:30am CALM 0 kts 12.9°c 1021.1 hPa 60% 0.0mm
03/08:00am WSW 3-4 kts 10.3°c 1020.9 hPa 69% 0.0mm
03/07:30am WSW 1-4 kts 8.4°c 1020.9 hPa 79% 0.0mm
03/07:00am SW 1-4 kts 6.7°c 1020.5 hPa 86% 0.0mm
03/06:30am SW 4-5 kts 5.3°c 1020.0 hPa 87% 0.0mm
03/06:00am CALM 0 kts 5.5°c 1019.7 hPa 84% 0.0mm
03/05:30am SW 3-5 kts 6.2°c 1019.4 hPa 86% 0.0mm
03/05:00am WSW 4-6 kts 6.4°c 1019.0 hPa 83% 0.0mm
03/04:30am WSW 4-5 kts 6.1°c 1018.8 hPa 86% 0.0mm
03/04:00am WSW 2-5 kts 5.9°c 1018.7 hPa 82% 0.0mm
03/03:30am SW 1-3 kts 6.3°c 1018.4 hPa 84% 0.0mm
03/03:00am WSW 5-8 kts 6.5°c 1018.4 hPa 84% 0.0mm
03/02:30am WSW 4-6 kts 5.6°c 1018.5 hPa 88% 0.0mm
03/02:00am SW 1-3 kts 4.9°c 1018.5 hPa 83% 0.0mm
03/01:30am WSW 4-6 kts 6.0°c 1018.7 hPa 86% 0.0mm
03/01:00am SW 2-4 kts 6.6°c 1018.6 hPa 82% 0.0mm
03/12:30am WSW 8-10 kts 7.5°c 1018.9 hPa 79% 0.0mm
03/12:00am WSW 4-5 kts 7.5°c 1019.2 hPa 76% 0.0mm
Time Wind Speed Temp Pressure Rel. Hum Rain
02/11:30pm WSW 4-6 kts 7.7°c 1019.4 hPa 82% 0.0mm
02/11:00pm WSW 4-7 kts 7.8°c 1019.5 hPa 75% 0.0mm
02/10:30pm WSW 6-7 kts 7.4°c 1019.4 hPa 82% 0.0mm
02/10:00pm SW 1-3 kts 7.6°c 1019.3 hPa 73% 0.0mm
02/09:30pm NW 4-6 kts 8.4°c 1019.5 hPa 68% 0.0mm
02/09:00pm NNW 3-4 kts 9.9°c 1019.2 hPa 62% 0.0mm
02/08:30pm NNW 5-7 kts 8.1°c 1019.0 hPa 68% 0.0mm
02/08:29pm NW 5-7 kts 7.8°c 1019.0 hPa 68% 0.0mm
02/08:00pm SW 2-5 kts 12.9°c 1018.7 hPa 44% 0.0mm
02/07:30pm SW 5-7 kts 13.8°c 1018.4 hPa 42% 0.0mm
02/07:00pm W 8-11 kts 14.3°c 1018.1 hPa 38% 0.0mm
02/06:30pm WNW 9-12 kts 14.4°c 1017.8 hPa 38% 0.0mm
02/06:00pm NW 7-11 kts 14.0°c 1017.5 hPa 42% 0.0mm
02/05:30pm SW 4-6 kts 12.9°c 1017.1 hPa 53% 0.0mm
02/05:00pm W 5-7 kts 15.6°c 1016.6 hPa 38% 0.0mm
02/04:30pm W 2-4 kts 18.6°c 1016.1 hPa 35% 0.0mm
02/04:00pm W 5-7 kts 19.4°c 1015.7 hPa 28% 0.0mm
02/03:30pm WSW 5-6 kts 19.9°c 1015.5 hPa 25% 0.0mm
02/03:00pm W 7-13 kts 20.0°c 1015.3 hPa 24% 0.0mm
02/02:30pm W 8-12 kts 20.6°c 1015.4 hPa 26% 0.0mm
02/02:00pm W 7-12 kts 20.4°c 1015.5 hPa 24% 0.0mm
02/01:30pm WSW 7-11 kts 20.3°c 1015.7 hPa 25% 0.0mm
02/01:00pm WSW 10-16 kts 19.5°c 1015.7 hPa 27% 0.0mm
02/12:30pm WSW 9-13 kts 19.5°c 1016.1 hPa 25% 0.0mm
02/12:00pm WSW 11-17 kts 19.1°c 1016.5 hPa 26% 0.0mm
02/11:30am SW 8-11 kts 18.5°c 1017.0 hPa 29% 0.0mm
02/11:00am SW 11-14 kts 18.0°c 1017.5 hPa 31% 0.0mm
02/10:30am WSW 7-10 kts 17.9°c 1017.7 hPa 33% 0.0mm
02/10:00am SW 9-14 kts 17.5°c 1017.6 hPa 33% 0.0mm
02/09:30am SW 10-15 kts 17.0°c 1017.3 hPa 34% 0.0mm
02/09:00am SW 6-13 kts 16.7°c 1017.3 hPa 36% 0.0mm
02/08:30am SSE 3-6 kts 16.1°c 1017.2 hPa 47% 0.0mm
02/08:00am SSE 8-10 kts 14.4°c 1017.0 hPa 69% 0.0mm
02/07:30am W 4-7 kts 13.0°c 1016.6 hPa 82% 0.0mm
02/07:00am WSW 4-5 kts 11.1°c 1016.3 hPa 93% 0.0mm
02/06:30am WSW 4-6 kts 11.2°c 1015.9 hPa 94% 0.0mm
02/06:00am WNW 4-6 kts 11.1°c 1015.5 hPa 93% 0.0mm
02/05:30am W 5-6 kts 11.8°c 1015.3 hPa 94% 0.0mm
02/05:00am WSW 5-6 kts 12.2°c 1014.7 hPa 92% 0.0mm
02/04:30am SW 7-9 kts 13.6°c 1014.6 hPa 94% 0.0mm
02/04:00am WSW 2-5 kts 13.3°c 1014.1 hPa 95% 0.0mm
02/03:30am CALM 0 kts 14.3°c 1013.9 hPa 92% 0.0mm
02/03:00am SSW 1-4 kts 15.0°c 1014.1 hPa 93% 0.0mm
02/02:30am NW 6-9 kts 15.2°c 1014.0 hPa 91% 0.0mm
02/02:00am NW 4-6 kts 15.5°c 1013.9 hPa 91% 0.0mm
02/01:30am NW 5-6 kts 15.9°c 1013.9 hPa 91% 0.0mm
02/01:00am NNW 6-7 kts 16.8°c 1013.7 hPa 87% 0.0mm
02/12:30am NNW 7-10 kts 17.5°c 1013.9 hPa 84% 0.0mm
02/12:00am NNW 7-10 kts 18.0°c 1014.1 hPa 83% 0.0mm